Regional Weather Roundup
Issued by NWS

Home | Current Version | Previous Version | Text Only | Print | Product List | Glossary Off
Versions: 1 2 3 4 5 6 7 8 9 10 11 12 13 14 15 16 17 18 19 20 21 22 23 24 25 26 27 28 29 30 31 32 33 34 35 36 37 38 39 40 41 42 43 44 45 46 47 48 49 50

000
ASUS43 KMKX 280114
RWRWI

WISCONSIN REGIONAL WEATHER ROUNDUP
NATIONAL WEATHER SERVICE MILWAUKEE/SULLIVAN WI
800 PM CDT WED MAY 27 2015

NOTE: "FAIR" INDICATES FEW OR NO CLOUDS BELOW 12,000 FEET WITH NO
SIGNIFICANT WEATHER AND/OR OBSTRUCTIONS TO VISIBILITY.

WIZ001-002-006>008-014>016-023>028-280200-
NORTHWEST WISCONSIN

CITY           SKY/WX    TMP DP  RH WIND       PRES   REMARKS
SUPERIOR ARPT  CLEAR     77  53  43 CALM      29.93R
ASHLAND        PTCLDY    68  57  68 S5        29.95R
HAYWARD        PTCLDY    66  57  72 CALM      29.97R
SIREN          PTCLDY    76  49  39 W5        29.97R
CUMBERLAND     CLEAR     70  55  60 W5        29.98R
RICE LAKE      CLEAR     74  56  53 SW3       29.99R
CHETEK         CLEAR     73  59  63 CALM      29.99R
LADYSMITH      CLOUDY    62  56  78 CALM      30.00F
EAU CLAIRE     PTCLDY    74  58  57 SW5       29.98R
MENOMONIE      PTCLDY    76  59  55 S3        29.98R
NEW RICHMOND   CLEAR     76  57  52 SW3       29.98R
OSCEOLA        PTCLDY    77  55  47 CALM      29.99S HAZE
$$

WIZ003>005-009-010-017-018-280200-
NORTH CENTRAL WISCONSIN

CITY           SKY/WX    TMP DP  RH WIND       PRES   REMARKS
MANITOWISH WTR MOCLDY    64  56  75 CALM      30.00S
ARBOR VITAE    CLOUDY    64  55  72 CALM      30.01R
WOODRUFF       CLOUDY    64  55  72 CALM      30.01R
RHINELANDER    CLOUDY    60  56  86 SE5       30.02R
EAGLE RIVER    LGT RAIN  64  53  66 CALM      30.01R
LAND O LAKES   RAIN      67  47  48 W7G23     30.00S
PHILLIPS       PTCLDY    63  58  82 CALM      29.99S
TOMAHAWK       CLOUDY    64  51  64 CALM      30.01F
MEDFORD        TSTM      62  56  82 NW6       30.05R
MERRILL        MOCLDY    68  53  58 NE13G18   30.05R THUNDER
$$

WIZ029-030-035-036-043>047-280200-
CENTRAL WISCONSIN

CITY           SKY/WX    TMP DP  RH WIND       PRES   REMARKS
WAUSAU         PTCLDY    71  59  65 W3        30.00R
MOSINEE        CLEAR     68  61  77 CALM      30.02R
MARSHFIELD     MOCLDY    73  59  61 SW6       30.01R
STEVENS POINT  CLEAR     70  58  66 CALM      30.02R
WAUPACA        CLEAR     72  59  63 SW3       30.01R
WAUTOMA        CLEAR     73  60  63 CALM      30.02R
WISC RAPIDS    PTCLDY    71  59  65 CALM      30.02R
CAMP DOUGLAS   PTCLDY    73  63  68 SW3       30.01R
$$

WIZ011>013-019>022-031-037>040-048>050-280200-
NORTHEAST WISCONSIN

CITY           SKY/WX    TMP DP  RH WIND       PRES   REMARKS
ANTIGO         HVY RAIN  60  56  86 N14G36    30.05R
SHAWANO        CLEAR     73  59  62 CALM      30.00R
OCONTO         CLEAR     62  53  72 S3        29.98F
STURGEON BAY   MOCLDY    61  55  82 S6        30.01S
GREEN BAY      CLEAR     72  61  68 S3        30.00R
MANITOWOC      CLEAR     63  56  78 E7        30.02R
APPLETON       PTCLDY    73  55  53 W7        30.01R
CLINTONVILLE   CLEAR     72  59  64 CALM      30.00R
OSHKOSH        CLEAR     71  58  63 S3        30.01R
$$

WIZ032>034-041-042-053>061-280200-
SOUTHWEST WISCONSIN

CITY           SKY/WX    TMP DP  RH WIND       PRES   REMARKS
LA CROSSE      CLEAR     77  60  55 S5        29.99R
SPARTA         CLEAR     74  57  55 CALM      30.01S
VIROQUA        CLEAR     72  60  66 SW6       30.04R
BOSCOBEL       CLEAR     76  59  55 S5        30.02R
PRAIRIE DU CHI CLEAR     76  56  49 CALM      30.02S
PLATTEVILLE    CLEAR     73  61  66 SW3       30.05S
$$

WIZ056-057-062-063-064-067-068-280200-
SOUTH CENTRAL WISCONSIN

CITY           SKY/WX    TMP DP  RH WIND       PRES   REMARKS
REEDSBURG      CLEAR     72  60  66 SW5       30.02S
BARABOO/DELLS  CLEAR     71  57  63 SW3       30.03R
LONE ROCK      CLEAR     74  59  59 SW5       30.03R
MINERAL POINT  CLEAR     72  57  60 SW6       30.06R
MADISON        CLEAR     73  57  57 CALM      30.04R
MIDDLETON      CLEAR     73  56  53 CALM      30.05R
WATERTOWN      CLEAR    N/A N/A N/A CALM      30.04R
MONROE         CLEAR     72  59  64 SW6       30.06R
JANESVILLE     CLEAR     73  57  56 W5        30.05R
$$

WIZ051-052-058>065-066-070>072-280200-
SOUTHEAST WISCONSIN

CITY           SKY/WX    TMP DP  RH WIND       PRES   REMARKS
MILWAUKEE      CLEAR     65  55  70 SE5       30.05R
WAUKESHA       CLEAR     70  54  56 SW5       30.06R
MILWAUKEE/TIMM CLEAR     70  54  56 SW8       30.05R
RACINE         CLEAR     65  55  70 S5        30.07R
BURLINGTON     CLEAR     66  57  72 SW3       30.06R
KENOSHA        CLEAR     66  58  75 SE3       30.06R
FOND DU LAC    CLEAR     71  57  61 SW6       30.02R
SHEBOYGAN      CLEAR     68  58  70 SW5       30.03R
WEST BEND      CLEAR     70  55  60 CALM      30.04R
JUNEAU         CLEAR     69  59  70 SW6       30.05R
$$

LSZ147-162-280200-
LAKE SUPERIOR

STATION/POSITION TIME  TEMP    WIND        PRES    WAVE
                       AIR SEA DIR/SP/G            HT/PER
                 (UTC) (F)     (DEG/KT/KT) (MB)    (FT/S)
W MID LAKE BUOY  0050   46 37   40/ 12/ 12   N/A     1/ 4
DEVILS ISLAND    0100   68     100/  4/  4   N/A
PORT WING        0040   74     240/  3/  4   N/A
SAXON HARBOR     0000   69      CALM  /  3   N/A
$$

LMZ867-665-643>646-280200-
LAKE MICHIGAN

STATION/POSITION TIME  TEMP    WIND        PRES    WAVE
                       AIR SEA DIR/SP/G            HT/PER
                 (UTC) (F)     (DEG/KT/KT) (MB)    (FT/S)
CHAMBERS ISLAND  0000   60     170/  6/ 10   N/A
N MID LAKE BUOY  0050   42 36  180/ 12/ 12   N/A     1/ 4
NORTHPORT PIER   0000   64     220/  5/  8   N/A
SISTER BAY       0003   63     160/  7/  8   N/A
ALGOMA LAKESHORE 0008           50/  6/  7   N/A
KEWAUNEE LAKESHO 0000   74      40/  8/ 11   N/A
SHEBOYGAN LAKESH 0100   62     190/ 12/ 12   N/A
PORT WASHINGTON  0000   58     190/  9/ 11   N/A
ATWATER BUOY     0000   55 49  180/  8/ 10   N/A
MILWAUKEE LAKESH 0000   60     150/ 11/ 11   N/A
S MID LAKE BUOY  0050   50 38  160/  2/  4   N/A     1
KENOSHA   LAKESH 0100   64     180/  4/  5   N/A
$$

TC  - TEMPERATURE IN CELSIUS
VSB - VISIBILITY IN STATUTE MILES
WCI - WIND CHILL INDEX
HX  - HEAT INDEX



USA.gov is the U.S. government's official web portal to all federal, state and local government web resources and services.